This demonstration page uses our WeatherBlox Daily Observations layout. Learn more.

Left ArrowRight Arrow

47.50024, -111.30081

Hourly Observations for May 29, 2021

Temp ( °F °C ) Dew Point ( °F °C ) Humidity (%) Winds ( mph kmh ) Pressure ( in mb ) Visibility ( mi km ) Precip ( " mm )
12:53 am 00:53 Clear 39 3.9 29 -1.7 67 67 SW 12 19 30.12 1020 10 16 0.00 0.00
1:53 am 01:53 Clear 37 2.8 28 -2.2 70 70 SSW 12 19 30.12 1020 10 16 0.00 0.00
2:53 am 02:53 Clear 37 2.8 29 -1.7 73 73 SSW 12 19 30.12 1020 10 16 0.00 0.00
3:53 am 03:53 Clear 36 2.2 28 -2.2 73 73 SSW 10 17 30.14 1021 10 16 0.00 0.00
4:53 am 04:53 Clear 36 2.2 28 -2.2 73 73 SSW 13 20 30.14 1021 10 16 0.00 0.00
5:53 am 05:53 Sunny 37 2.8 29 -1.7 73 73 SSW 12 19 30.16 1021 10 16 0.00 0.00
6:53 am 06:53 Sunny 43 6.1 30 -1.1 60 60 SSW 12 19 30.16 1021 10 16 0.00 0.00
7:53 am 07:53 Sunny 48 8.9 31 -0.6 52 52 SSW 10 17 30.17 1022 10 16 0.00 0.00
8:53 am 08:53 Sunny 51 10.6 32 0 48 48 SW 9 15 30.18 1022 10 16 0.00 0.00
9:53 am 09:53 Sunny 54 12.2 30 -1.1 40 40 W 9 15 30.18 1022 10 16 0.00 0.00
10:53 am 10:53 Sunny 56 13.3 28 -2.2 34 34 Calm 30.17 1022 10 16 0.00 0.00
11:53 am 11:53 Sunny 58 14.4 28 -2.2 32 32 SW 7 11 30.19 1022 10 16 0.00 0.00
12:53 pm 12:53 Mostly Sunny 60 15.6 30 -1.1 32 32 SW 10 17 30.17 1022 10 16 0.00 0.00
1:53 pm 13:53 Sunny 61 16.1 28 -2.2 29 29 VRB 6 9 30.16 1022 10 16 0.00 0.00
2:53 pm 14:53 Sunny 63 17.2 28 -2.2 27 27 W 8 13 30.16 1021 10 16 0.00 0.00
3:53 pm 15:53 Mostly Sunny 64 17.8 29 -1.7 27 27 SW 10 17 30.15 1021 10 16 0.00 0.00
4:53 pm 16:53 Sunny 65 18.3 24 -4.4 21 21 undefined N/A 30.13 1020 10 16 0.00 0.00
5:53 pm 17:53 Sunny 65 18.3 27 -2.8 24 24 VRB 6 9 30.13 1020 10 16 0.00 0.00
6:53 pm 18:53 Sunny 63 17.2 27 -2.8 26 26 WSW 5 7 30.12 1020 10 16 0.00 0.00
7:53 pm 19:53 Sunny 61 16.1 31 -0.6 32 32 WSW 6 9 30.11 1020 10 16 0.00 0.00
8:53 pm 20:53 Sunny 60 15.6 29 -1.7 31 31 S 3 6 30.12 1020 10 16 0.00 0.00
9:53 pm 21:53 Clear 54 12.2 32 0 43 43 SE 6 9 30.15 1021 10 16 0.00 0.00
10:53 pm 22:53 Clear 52 11.1 30 -1.1 43 43 SSE 8 13 30.15 1021 10 16 0.00 0.00
11:53 pm 23:53 Clear 47 8.3 31 -0.6 54 54 S 8 13 30.16 1021 10 16 0.00 0.00

Powered by AerisWeather